Latest Coastal Weather Observations for Devonport Airport

IDV60701

Issued at 11:35 am EDT Thursday 23 October 2014 (issued every 10 minutes, with the page automatically refreshed every 10 minutes)

About coastal observations | Map of coastal stations | Coastal observations for VIC | Marine services | Other Formats
Station Details ID: 091126 Name: DEVONPORT AIRPORT Lat: -41.17 Lon: 146.43 Height: 8.0 m
Data from the previous 72 hours. | See also: Recent months at Devonport Airport
Date/Time
EDT
Temp

°C
Wind Pressure Rain
since 9am
mm
Weather Cloud Vis
km
Sea
Height
m
Swell
Dir
 
Speed
knots
Gust
knots
hPa Trend Height
m
Period
s
Dir
23/11:30am 17.7 ESE 14 20 1023.1 - 0.0 - - 10 - - - -
23/11:00am 17.4 ESE 16 21 1023.3 - 0.0 - - 10 - - - -
23/10:30am 16.5 SE 12 16 1023.2 - 0.0 - - 10 - - - -
23/10:00am 16.2 SSE 15 21 1022.7 - 0.0 - - 10 - - - -
23/09:30am 15.2 SSE 23 28 1022.0 - 0.0 - - 10 - - - -
23/09:00am 14.5 SSE 22 32 1021.9 - 0.0 - Mostly clear 10 - - - -
23/08:30am 13.9 SSE 23 28 1021.6 - 0.0 - Partly cloudy 10 - - - -
23/08:00am 13.1 SSE 18 23 1021.5 - 0.0 - Cloudy 10 - - - -
23/07:30am 13.0 SSE 17 23 1021.1 - 0.0 - Cloudy 10 - - - -
23/07:00am 13.0 SSE 11 14 1020.5 - 0.0 - Partly cloudy 10 - - - -
23/06:30am 11.8 SW 4 5 1020.2 - 0.0 - - 10 - - - -
23/06:00am 11.0 SW 4 6 1019.9 - 0.0 - - 10 - - - -
23/05:30am 12.8 SE 7 10 1019.6 - 0.0 - - 10 - - - -
23/05:00am 13.0 SE 7 11 1019.3 - 0.0 - - 10 - - - -
23/04:30am 12.2 SE 6 8 1018.7 - 0.0 - - 10 - - - -
23/04:00am 13.0 SSE 10 13 1018.3 - 0.0 - - 10 - - - -
23/03:30am 13.1 SSE 7 9 1017.8 - 0.0 - - 10 - - - -
23/03:00am 13.0 SSE 3 6 1017.7 - 0.0 - - 10 - - - -
23/02:30am 13.1 SSE 8 10 1017.4 - 0.0 - - 10 - - - -
23/02:00am 11.9 SSE 6 8 1017.4 - 0.0 - - 10 - - - -
23/01:30am 12.1 SSE 6 8 1017.3 - 0.0 - - 10 - - - -
23/01:00am 11.6 SSE 8 10 1017.6 - 0.0 - - 10 - - - -
23/12:30am 10.9 SSE 5 7 1017.6 - 0.0 - - 10 - - - -
23/12:00am 11.3 S 6 8 1017.3 - 0.0 - - 10 - - - -
 
Date/Time
EDT
Temp

°C
Wind Pressure Rain
since 9am
mm
Weather Cloud Vis
km
Sea
Height
m
Swell
Dir
 
Speed
knots
Gust
knots
hPa Trend Height
m
Period
s
Dir
22/11:30pm 11.1 SSE 6 7 1017.0 - 0.0 - - 10 - - - -
22/11:00pm 10.5 SSE 4 5 1016.8 - 0.0 - - 10 - - - -
22/10:30pm 11.5 E 4 5 1016.6 - 0.0 - - 10 - - - -
22/10:00pm 11.0 NE 5 6 1016.6 - 0.0 - - 10 - - - -
22/09:30pm 12.2 SSE 3 5 1016.8 - 0.0 - - 10 - - - -
22/09:00pm 12.6 SE 3 3 1016.9 - 0.0 - Mostly cloudy 10 - - - -
22/08:30pm 13.2 WNW 5 7 1016.7 - 0.0 - - 10 - - - -
22/08:00pm 13.9 WNW 6 8 1016.5 - 0.0 - - 10 - - - -
22/07:30pm 14.7 N 5 11 1016.3 - 0.0 - Partly cloudy 10 - - - -
22/07:00pm 14.5 WSW 5 9 1016.5 - 0.0 - Partly cloudy 10 - - - -
22/06:30pm 14.8 NNE 9 11 1015.3 - 0.0 - Partly cloudy 10 - - - -
22/06:00pm 14.9 W 4 6 1016.6 - 0.0 - Cloudy 10 - - - -
22/05:30pm 15.2 NW 7 10 1017.3 - 0.0 - Cloudy 10 - - - -
22/05:00pm 15.2 N 7 8 1016.3 - 0.0 - Partly cloudy 10 - - - -
22/04:30pm 15.5 NE 5 7 1016.7 - 0.0 - Partly cloudy 10 - - - -
22/04:00pm 16.3 N 6 8 1016.8 - 0.0 - Partly cloudy 10 - - - -
22/03:30pm 16.4 N 6 8 1017.4 - 0.0 - - 10 - - - -
22/03:00pm 16.4 N 6 8 1017.4 - 0.0 - Mostly cloudy 10 - - - -
22/02:30pm 16.1 N 7 9 1017.6 - 0.0 - Partly cloudy 10 - - - -
22/02:00pm 16.8 NNE 8 11 1018.0 - 0.0 - - 10 - - - -
22/01:30pm 16.8 NNE 8 11 1018.6 - 0.0 - - 10 - - - -
22/01:00pm 16.8 N 7 9 1019.1 - 0.0 - - 10 - - - -
22/12:30pm 16.6 N 7 9 1019.6 - 0.0 - - 10 - - - -
22/12:00pm 16.8 N 6 9 1020.2 - 0.0 - - 10 - - - -
22/11:30am 16.4 N 6 8 1021.0 - 0.0 - Partly cloudy 10 - - - -
22/11:00am 16.0 E 4 8 1021.5 - 0.0 - Cloudy 10 - - - -
22/10:30am 15.9 ESE 5 8 1022.1 - 0.0 - Cloudy 10 - - - -
22/10:00am 15.5 SSE 8 11 1022.4 - 0.0 - Cloudy 10 - - - -
22/09:30am 14.5 S 9 11 1022.6 - 0.0 - Cloudy 10 - - - -
22/09:00am 13.9 S 9 11 1022.5 - - - Cloudy 10 - - - -
22/08:30am 12.8 SSE 7 9 1022.7 - - - Cloudy 10 - - - -
22/08:00am 12.4 S 7 9 1023.2 - - - Cloudy 10 - - - -
22/07:30am 12.2 S 8 10 1023.3 - - - Cloudy 10 - - - -
22/07:00am 12.1 S 7 8 1023.4 - - - Cloudy 10 - - - -
22/06:30am 11.9 SSE 7 8 1023.6 - - - Cloudy 10 - - - -
22/06:00am 11.9 SSE 8 10 1023.5 - - - Cloudy 10 - - - -
22/05:30am 11.8 SSE 7 8 1023.9 - - - Cloudy 10 - - - -
22/05:00am 11.6 SSE 7 8 1024.1 - - - Cloudy 10 - - - -
22/04:30am 11.6 SSE 9 10 1024.6 - - - Cloudy 10 - - - -
22/04:00am 11.5 SSE 8 10 1024.8 - - - Cloudy 10 - - - -
22/03:30am 11.7 SSE 8 10 1025.3 - - - Cloudy 10 - - - -
22/03:00am 11.4 SSE 8 9 1025.6 - 0.0 - Cloudy 10 - - - -
22/02:30am 11.4 S 9 10 1026.5 - - - Cloudy 10 - - - -
22/02:00am 11.7 SSE 8 10 1026.9 - - - Cloudy 10 - - - -
22/01:30am 11.5 SSE 7 9 1027.4 - - - Cloudy 10 - - - -
22/01:00am 11.7 SSE 9 10 1028.1 - - - Cloudy 10 - - - -
22/12:30am 11.4 SSE 7 9 1028.3 - - - Cloudy 10 - - - -
22/12:00am 11.5 SSE 7 9 1028.7 - - - Cloudy 10 - - - -
 
Date/Time
EDT
Temp

°C
Wind Pressure Rain
since 9am
mm
Weather Cloud Vis
km
Sea
Height
m
Swell
Dir
 
Speed
knots
Gust
knots
hPa Trend Height
m
Period
s
Dir
21/11:30pm 11.2 SSE 7 8 1029.1 - - - Cloudy 10 - - - -
21/11:00pm 11.0 ESE 6 9 1029.4 - - - Partly cloudy 10 - - - -
21/10:30pm 11.1 ESE 8 10 1029.4 - - - - 10 - - - -
21/10:00pm 11.0 E 7 9 1029.7 - - - - 10 - - - -
21/09:30pm 10.8 E 6 8 1030.0 - - - - 10 - - - -
21/09:00pm 10.8 E 7 9 1029.8 - - - - 10 - - - -
21/08:30pm 11.6 E 9 11 1029.6 - - - - 10 - - - -
21/08:00pm 11.9 ENE 9 12 1029.5 - - - - 10 - - - -
21/07:30pm 12.7 ENE 11 17 1029.4 - - - - 10 - - - -
21/07:00pm 13.8 ENE 13 15 1029.3 - - - - 10 - - - -
21/06:30pm 14.4 NE 15 19 1029.2 - - - - 10 - - - -
21/06:00pm 14.9 NE 13 17 1029.7 - - - - 10 - - - -
21/05:30pm 15.2 NE 14 17 1029.9 - - - - 10 - - - -
21/05:00pm 15.5 NE 14 17 1029.9 - - - - 10 - - - -
21/04:30pm 15.7 NE 15 18 1030.5 - - - - 10 - - - -
21/04:00pm 16.0 NE 14 19 1030.7 - - - - 10 - - - -
21/03:30pm 16.3 NE 15 19 1031.0 - - - - 10 - - - -
21/03:00pm 16.0 NE 15 19 1031.4 - 0.0 - - 10 - - - -
21/02:30pm 16.0 NE 14 17 1031.6 - 0.0 - - 10 - - - -
21/02:00pm 16.5 NE 13 16 1032.2 - 0.0 - - 10 - - - -
21/01:30pm 16.5 NE 12 17 1032.7 - 0.0 - - 10 - - - -
21/01:00pm 16.2 ENE 15 18 1032.9 - 0.0 - Partly cloudy 10 - - - -
21/12:30pm 15.9 ENE 15 19 1033.1 - 0.0 - Cloudy 10 - - - -
21/12:00pm 15.8 NE 12 15 1033.5 - 0.0 - Cloudy 10 - - - -
21/11:30am 15.3 E 9 13 1033.8 - 0.0 - Cloudy 10 - - - -
21/11:00am 14.7 NE 11 13 1034.2 - 0.0 - Cloudy 10 - - - -
21/10:30am 13.5 E 11 15 1034.5 - 0.0 - Cloudy 10 - - - -
21/10:00am 13.6 E 10 13 1034.5 - 0.0 - Cloudy 10 - - - -
21/09:30am 13.0 ESE 8 11 1034.5 - 0.0 - Cloudy 10 - - - -
21/09:00am 12.1 SE 10 14 1034.5 - 0.0 - Cloudy 10 - - - -
21/08:30am 11.3 SE 9 13 1034.5 - 0.0 - Cloudy 10 - - - -
21/08:00am 10.8 SE 10 11 1034.5 - 0.0 - Cloudy 10 - - - -
21/07:30am 9.9 SSE 11 13 1034.0 - 0.0 - Cloudy 10 - - - -
21/07:00am 9.5 SSE 9 11 1033.7 - 0.0 - Cloudy 10 - - - -
21/06:30am 8.3 SSE 9 10 1033.5 - 0.0 - Cloudy 10 - - - -
21/06:00am 8.0 SSE 9 11 1033.2 - 0.0 - Cloudy 10 - - - -
21/05:30am 7.2 SSE 10 11 1033.1 - 0.0 - Partly cloudy 10 - - - -
21/05:00am 7.0 SSE 11 12 1033.2 - 0.0 - Partly cloudy 10 - - - -
21/04:30am 6.4 S 9 11 1033.5 - 0.0 - Cloudy 10 - - - -
21/04:00am 6.0 S 10 11 1033.6 - 0.0 - Partly cloudy 10 - - - -
21/03:30am 5.6 S 8 11 1033.7 - 0.0 - - 10 - - - -
21/03:00am 5.0 S 8 10 1033.9 - 0.0 - Mostly clear 10 - - - -
21/02:30am 5.3 S 8 10 1034.2 - 0.0 - Partly cloudy 10 - - - -
21/02:00am 5.7 S 9 10 1034.3 - 0.0 - - 10 - - - -
21/01:30am 5.3 SSE 9 11 1034.4 - 0.0 - - 10 - - - -
21/01:00am 5.9 S 9 10 1034.8 - 0.0 - - 10 - - - -
21/12:30am 6.3 SSE 8 9 1034.9 - 0.0 - - 10 - - - -
21/12:00am 6.2 SSE 8 10 1034.9 - 0.0 - Mostly clear 10 - - - -
 
Date/Time
EDT
Temp

°C
Wind Pressure Rain
since 9am
mm
Weather Cloud Vis
km
Sea
Height
m
Swell
Dir
 
Speed
knots
Gust
knots
hPa Trend Height
m
Period
s
Dir
20/11:30pm 6.3 SSE 7 9 1035.2 - 0.0 - - 10 - - - -
20/11:00pm 7.0 SSE 8 9 1035.3 - 0.0 - - 10 - - - -
20/10:30pm 7.6 SE 8 9 1035.3 - 0.0 - - 10 - - - -
20/10:00pm 7.1 SSE 7 7 1035.3 - 0.0 - - 10 - - - -
20/09:30pm 7.3 SSE 8 9 1035.3 - 0.0 - - 10 - - - -
20/09:00pm 7.1 S 6 7 1035.0 - 0.0 - - 10 - - - -
20/08:30pm 8.0 SSE 5 6 1034.6 - 0.0 - - 10 - - - -
20/08:00pm 9.4 CALM 0 3 1034.3 - 0.0 - - 10 - - - -
20/07:30pm 10.8 N 4 6 1034.1 - 0.0 - - 10 - - - -
20/07:00pm 11.5 NNW 5 6 1033.8 - 0.0 - - 10 - - - -
20/06:30pm 11.7 N 6 8 1033.7 - 0.0 - - 10 - - - -
20/06:00pm 12.1 N 7 9 1033.8 - 0.0 - - 10 - - - -
20/05:30pm 12.3 N 8 9 1033.8 - 0.0 - - 10 - - - -
20/05:00pm 12.1 N 9 11 1033.7 - 0.0 - - 10 - - - -
20/04:30pm 12.6 N 10 12 1033.7 - 0.0 - - 10 - - - -
20/04:00pm 12.8 N 11 14 1033.7 - 0.0 - - 10 - - - -
20/03:30pm 13.0 N 10 13 1033.8 - 0.0 - - 10 - - - -
20/03:00pm 13.0 N 10 13 1033.9 - 0.0 - - 10 - - - -
20/02:30pm 13.1 N 12 14 1034.1 - 0.0 - - 10 - - - -
20/02:00pm 13.1 N 11 14 1034.3 - 0.0 - - 10 - - - -
20/01:30pm 13.3 N 11 14 1034.5 - 0.0 - - 10 - - - -
20/01:00pm 12.3 NNW 11 14 1034.7 - 0.0 - - 10 - - - -
20/12:30pm 12.3 N 11 12 1034.6 - 0.0 - - 10 - - - -
20/12:00pm 13.4 E 7 12 1034.6 - 0.0 - - 10 - - - -

Other Formats:

Comma delimited format used in spreadsheet applications
http://www.bom.gov.au/fwo/IDV60701/IDV60701.95960.axf

JavaScript Object Notation format (JSON) in row-major order
http://www.bom.gov.au/fwo/IDV60701/IDV60701.95960.json